Date String (YYYY-MM-DD hh:mm:ss) UTC,Instrument flags,Ambient pressure (hPa),Sample flow (lpm),Bypass flow (lpm),Sample temperature (°C),Ambient temperature (°C),ASC tube jacket temperature (°C),LED temperature (°C),Box temperature (°C),Sample RH (%),Span deviation,Mass concentration (μg/m³),Mass concentration (μg/m³),Mass concentration (μg/m³)
DateTimeUTC,F1_M11,P_M11,Q1_M11,Q2_M11,T1_M11,T2_M11,T3_M11,T4_M11,T5_M11,U1_M11,ZSPAN_M11,X0_M11,X2_M11,X1_M11
2021-12-03 05:00:00,,0826.2,5.00,0.00,30.2,29.2,00.0,39.2,31.7,08.3,0000.0,0001.17,0000.26,0000.15
2021-12-03 05:01:00,,0826.2,5.01,0.00,30.2,29.2,00.0,39.2,31.8,08.3,0000.0,0001.09,0000.26,0000.15
2021-12-03 05:02:00,,0826.2,4.98,0.00,30.2,29.2,00.0,39.2,31.8,08.3,0000.0,0001.07,0000.25,0000.14
2021-12-03 05:03:00,,0826.2,5.01,0.00,30.2,29.2,00.0,39.2,31.8,08.3,0000.0,0001.19,0000.25,0000.14
2021-12-03 05:04:00,,0826.2,4.99,0.00,30.2,29.2,00.0,39.2,31.9,08.3,0000.0,0001.44,0000.25,0000.14
2021-12-03 05:05:00,,0826.2,5.00,0.00,30.2,29.2,00.0,39.2,31.9,08.3,0000.0,0001.42,0000.25,0000.14
2021-12-03 05:06:00,,0826.2,5.01,0.00,30.2,29.2,00.0,39.2,31.9,08.3,0000.0,0001.42,0000.24,0000.14
2021-12-03 05:07:00,,0826.2,5.00,0.00,30.2,29.2,00.0,39.2,31.9,08.3,0000.0,0001.35,0000.21,0000.14
2021-12-03 05:08:00,,0826.2,4.99,0.00,30.2,29.3,00.0,39.2,31.9,08.2,0000.0,0000.86,0000.22,0000.14
2021-12-03 05:09:00,,0826.2,5.00,0.00,30.2,29.2,00.0,39.2,31.9,08.2,0000.0,0000.82,0000.23,0000.14
2021-12-03 05:10:00,,0826.2,5.00,0.00,30.2,29.2,00.0,39.2,31.9,08.2,0000.0,0000.80,0000.22,0000.14
2021-12-03 05:11:00,,0826.2,4.99,0.00,30.2,29.2,00.0,39.2,31.9,08.2,0000.0,0000.81,0000.22,0000.15
2021-12-03 05:12:00,,0826.2,5.00,0.00,30.2,29.2,00.0,39.2,31.9,08.2,0000.0,0000.82,0000.23,0000.15
2021-12-03 05:13:00,,0826.2,4.99,0.00,30.2,29.3,00.0,39.3,31.9,08.2,0000.0,0000.80,0000.22,0000.15
2021-12-03 05:14:00,,0826.2,5.02,0.00,30.3,29.3,00.0,39.3,31.9,08.2,0000.0,0000.67,0000.22,0000.15
2021-12-03 05:15:00,,0826.2,5.00,0.00,30.3,29.2,00.0,39.3,31.9,08.2,0000.0,0000.41,0000.22,0000.15
2021-12-03 05:16:00,,0826.2,4.99,0.00,30.3,29.3,00.0,39.3,31.9,08.2,0000.0,0000.41,0000.22,0000.15
2021-12-03 05:17:00,,0826.3,5.01,0.00,30.3,29.2,00.0,39.3,31.9,08.2,0000.0,0000.43,0000.23,0000.15
2021-12-03 05:18:00,,0826.2,4.99,0.00,30.3,29.2,00.0,39.3,31.9,08.2,0000.0,0000.43,0000.23,0000.15
2021-12-03 05:19:00,,0826.2,5.00,0.00,30.3,29.2,00.0,39.3,31.9,08.2,0000.0,0000.38,0000.21,0000.15
2021-12-03 05:20:00,,0826.2,5.02,0.00,30.3,29.2,00.0,39.3,31.9,08.2,0000.0,0000.33,0000.20,0000.15
2021-12-03 05:21:00,,0826.2,4.99,0.00,30.3,29.2,00.0,39.3,31.9,08.2,0000.0,0000.39,0000.22,0000.16
2021-12-03 05:22:00,,0826.2,5.01,0.00,30.3,29.2,00.0,39.3,32.0,08.2,0000.0,0000.45,0000.21,0000.15
2021-12-03 05:23:00,,0826.2,4.99,0.00,30.3,29.3,00.0,39.3,32.0,08.2,0000.0,0000.98,0000.24,0000.15
2021-12-03 05:24:00,,0826.2,5.00,0.00,30.3,29.2,00.0,39.3,31.9,08.2,0000.0,0000.96,0000.23,0000.15
2021-12-03 05:25:00,,0826.2,5.01,0.00,30.3,29.2,00.0,39.3,31.9,08.2,0000.0,0000.92,0000.22,0000.15
2021-12-03 05:26:00,,0826.2,5.01,0.00,30.3,29.2,00.0,39.3,31.9,08.2,0000.0,0000.99,0000.21,0000.15
2021-12-03 05:27:00,,0826.2,5.00,0.00,30.3,29.2,00.0,39.3,31.9,08.2,0000.0,0001.64,0000.22,0000.15
2021-12-03 05:28:00,,0826.2,5.00,0.00,30.3,29.3,00.0,39.3,31.9,08.2,0000.0,0001.62,0000.21,0000.15
2021-12-03 05:29:00,,0826.2,4.99,0.00,30.3,29.3,00.0,39.3,31.9,08.2,0000.0,0001.61,0000.21,0000.15
2021-12-03 05:30:00,,0826.2,5.01,0.00,30.3,29.3,00.0,39.3,31.9,08.1,0000.0,0001.65,0000.22,0000.14
2021-12-03 05:31:00,,0826.1,5.01,0.00,30.2,29.3,00.0,39.3,31.9,08.1,0000.0,0001.68,0000.23,0000.14
2021-12-03 05:32:00,,0826.1,4.99,0.00,30.2,29.3,00.0,39.3,31.9,08.2,0000.0,0001.62,0000.20,0000.13
2021-12-03 05:33:00,,0826.2,5.01,0.00,30.2,29.3,00.0,39.3,31.9,08.2,0000.0,0001.52,0000.20,0000.13
2021-12-03 05:34:00,,0826.1,5.00,0.00,30.2,29.2,00.0,39.3,31.9,08.2,0000.0,0000.99,0000.17,0000.13
2021-12-03 05:35:00,,0826.2,4.99,0.00,30.2,29.3,00.0,39.3,31.9,08.2,0000.0,0000.99,0000.17,0000.13
2021-12-03 05:36:00,,0826.1,5.00,0.00,30.2,29.2,00.0,39.3,31.9,08.2,0000.0,0001.02,0000.18,0000.13
2021-12-03 05:37:00,,0826.2,4.99,0.00,30.2,29.2,00.0,39.3,31.9,08.2,0000.0,0000.94,0000.18,0000.13
2021-12-03 05:38:00,,0826.2,4.99,0.00,30.2,29.2,00.0,39.3,31.9,08.1,0000.0,0000.31,0000.18,0000.13
2021-12-03 05:39:00,,0826.2,5.00,0.00,30.2,29.2,00.0,39.3,31.9,08.1,0000.0,0000.31,0000.18,0000.13
2021-12-03 05:40:00,,0826.2,5.00,0.00,30.2,29.2,00.0,39.3,31.9,08.1,0000.0,0000.35,0000.20,0000.14
2021-12-03 05:41:00,,0826.2,5.00,0.00,30.2,29.2,00.0,39.3,31.9,08.1,0000.0,0000.38,0000.20,0000.14
2021-12-03 05:42:00,,0826.1,5.01,0.00,30.2,29.1,00.0,39.2,31.9,08.1,0000.0,0000.37,0000.21,0000.14
2021-12-03 05:43:00,,0826.2,4.99,0.00,30.2,29.2,00.0,39.2,31.8,08.1,0000.0,0000.43,0000.23,0000.15
2021-12-03 05:44:00,,0826.1,4.99,0.00,30.2,29.2,00.0,39.2,31.9,08.2,0000.0,0000.48,0000.24,0000.15
2021-12-03 05:45:00,,0826.2,5.00,0.00,30.2,29.2,00.0,39.2,31.9,08.2,0000.0,0000.52,0000.26,0000.15
2021-12-03 05:46:00,,0826.2,4.99,0.00,30.2,29.2,00.0,39.2,31.8,08.2,0000.0,0000.53,0000.27,0000.15
2021-12-03 05:47:00,,0826.2,5.01,0.00,30.2,29.2,00.0,39.2,31.9,08.1,0000.0,0000.49,0000.26,0000.15
2021-12-03 05:48:00,,0826.2,5.01,0.00,30.2,29.2,00.0,39.2,31.9,08.1,0000.0,0000.49,0000.26,0000.15
2021-12-03 05:49:00,,0826.2,4.99,0.00,30.2,29.2,00.0,39.2,31.9,08.1,0000.0,0000.49,0000.26,0000.15
2021-12-03 05:50:00,,0826.2,5.00,0.00,30.2,29.2,00.0,39.2,31.8,08.1,0000.0,0000.49,0000.26,0000.15
2021-12-03 05:51:00,,0826.2,5.00,0.00,30.2,29.1,00.0,39.2,31.8,08.2,0000.0,0000.49,0000.26,0000.15
2021-12-03 05:52:00,,0826.2,4.99,0.00,30.2,29.1,00.0,39.2,31.8,08.2,0000.0,0000.43,0000.24,0000.15
2021-12-03 05:53:00,,0826.2,5.00,0.00,30.2,29.1,00.0,39.2,31.8,08.2,0000.0,0000.41,0000.23,0000.15
2021-12-03 05:54:00,,0826.2,5.01,0.00,30.2,29.1,00.0,39.2,31.8,08.2,0000.0,0000.41,0000.22,0000.15
2021-12-03 05:55:00,,0826.2,5.00,0.00,30.2,29.1,00.0,39.2,31.7,08.2,0000.0,0000.45,0000.22,0000.15
2021-12-03 05:56:00,,0826.2,4.99,0.00,30.2,29.2,00.0,39.2,31.7,08.2,0000.0,0000.41,0000.21,0000.16
2021-12-03 05:57:00,,0826.2,4.99,0.00,30.2,29.2,00.0,39.2,31.7,08.2,0000.0,0000.42,0000.21,0000.16
2021-12-03 05:58:00,,0826.2,4.99,0.00,30.2,29.1,00.0,39.2,31.7,08.2,0000.0,0000.45,0000.23,0000.16
2021-12-03 05:59:00,,0826.1,4.98,0.00,30.1,29.1,00.0,39.2,31.8,08.2,0000.0,0000.45,0000.23,0000.16
